This is the latest recevied weather packets stored in our database for station/object N1UNH. If no packets are shown the sender has not sent any weather packets the latest 10 day(s).
| Time | Temp. | Humidity | Pressure | Rain* | Wind** | Luminosity | Snow |
|---|---|---|---|---|---|---|---|
| 1777935994 | 20° C | 36% | 1011.6 hPa | 0 mm | - | 19 W/m² | - |
| 1777935693 | 19.44° C | 33% | 1011.6 hPa | 0 mm | - | 23 W/m² | - |
| 1777935391 | 20° C | 34% | 1011.5 hPa | 0 mm | - | 24 W/m² | - |
| 1777935087 | 20° C | 34% | 1011.1 hPa | 0 mm | - | 25 W/m² | - |
| 1777934784 | 20.56° C | 33% | 1011.3 hPa | 0 mm | - | 28 W/m² | - |
| 1777934480 | 20.56° C | 31% | 1011 hPa | 0 mm | - | 30 W/m² | - |
| 1777934178 | 20.56° C | 32% | 1010.9 hPa | 0 mm | - | 33 W/m² | - |
| 1777933874 | 20.56° C | 34% | 1010.9 hPa | 0 mm | - | 37 W/m² | - |
| 1777933571 | 20.56° C | 31% | 1010.8 hPa | 0 mm | - | 41 W/m² | - |
| 1777933268 | 21.11° C | 33% | 1010.9 hPa | 0 mm | - | 46 W/m² | - |
| 1777932965 | 21.11° C | 30% | 1010.9 hPa | 0 mm | - | 54 W/m² | - |
| 1777932661 | 21.11° C | 29% | 1011 hPa | 0 mm | - | 58 W/m² | - |
| 1777932358 | 21.11° C | 29% | 1011.1 hPa | 0 mm | - | 58 W/m² | - |
| 1777932055 | 21.11° C | 33% | 1010.9 hPa | 0 mm | - | 66 W/m² | - |
| 1777931752 | 21.11° C | 30% | 1011.2 hPa | 0 mm | - | 81 W/m² | - |
| 1777931449 | 21.11° C | 28% | 1011 hPa | 0 mm | - | 86 W/m² | - |
| 1777931145 | 21.67° C | 29% | 1010.9 hPa | 0 mm | - | 95 W/m² | - |
| 1777930842 | 22.22° C | 28% | 1011.1 hPa | 0 mm | - | 223 W/m² | - |
| 1777930538 | 22.22° C | 28% | 1010.8 hPa | 0 mm | - | 267 W/m² | - |
| 1777930235 | 22.22° C | 27% | 1011.4 hPa | 0 mm | - | 281 W/m² | - |
| 1777929931 | 22.78° C | 28% | 1011 hPa | 0 mm | - | 237 W/m² | - |
| 1777929628 | 22.22° C | 28% | 1011 hPa | 0 mm | - | 291 W/m² | - |
| 1777929325 | 22.78° C | 28% | 1011 hPa | 0 mm | - | 325 W/m² | - |
| 1777929022 | 22.22° C | 29% | 1011.1 hPa | 0 mm | - | 353 W/m² | - |
| 1777928719 | 22.22° C | 28% | 1011.1 hPa | 0 mm | - | 369 W/m² | - |
* Rain latest hour (hover to see other rain measurements)
** Current wind speed in m/s (hover to see current wind gust speed)